Regional Weather Roundup
Issued by NWS

Home | Current Version | Previous Version | Graphics & Text | Print | Product List | Glossary On
Versions: 1 2 3 4 5 6 7 8 9 10 11 12 13 14 15 16 17 18 19 20 21 22 23 24 25 26 27 28 29 30 31 32 33 34 35 36 37 38 39 40 41 42 43 44 45 46 47 48 49 50
000
ASUS45 KBOU 171707
RWRCO

WEATHER ROUNDUP FOR COLORADO
NATIONAL WEATHER SERVICE DENVER/BOULDER CO
1100 AM MDT THU AUG 17 2017

NOTE: "FAIR" INDICATES FEW OR NO CLOUDS BELOW 12000 FEET WITH NO
SIGNIFICANT WEATHER AND/OR OBSTRUCTIONS TO VISIBILITY.

COZ001>005-013-030-031-171800-
...NORTHWEST COLORADO...

CITY           SKY/WX    TMP DP  RH WIND       PRES   REMARKS
CRAIG          FAIR      73  37  27 CALM      30.27F
HAYDEN         FAIR      70  38  31 VRB3      30.32S
MEEKER         FAIR      72  40  31 VRB3      30.29S
RABBIT EARS PA FAIR      54  34  47 W6        30.55R
STEAMBOAT SPGS NOT AVBL
WALDEN         FAIR      63  37  39 W3        30.38S
$$

COZ006>008-011-171800-
...WEST CENTRAL VALLEYS...

CITY           SKY/WX    TMP DP  RH WIND       PRES   REMARKS
GRAND JUNCTION FAIR      75  39  27 S7        30.21R
MONTROSE       PTSUNNY   69  41  36 NW6       30.28R
EAGLE          FAIR      67  37  33 CALM      30.33F
RIFLE          FAIR      73  40  30 N5        30.24F
DELTA          FAIR      75  39  27 S5        30.23F
NUCLA          FAIR      75  28  17 W3        30.31S
$$

COZ017>023-064>068-171800-
...SOUTHWEST COLORADO...

CITY           SKY/WX    TMP DP  RH WIND       PRES   REMARKS
DURANGO        FAIR      71  29  21 CALM      30.33S
CORTEZ         FAIR      75  29  18 CALM      30.28S
PAGOSA SPRINGS FAIR      70  20  15 S7        30.40S
TELLURIDE      FAIR      68  25  19 CALM      30.50S
WOLF CREEK PAS FAIR      54  28  37 SW10G18   30.71S
$$

COZ009-010-012-014-032>034-037-058>063-171800-
...CENTRAL COLORADO...

CITY           SKY/WX    TMP DP  RH WIND       PRES   REMARKS
ASPEN          FAIR      71  36  27 NE5       30.36S
BUENA VISTA    FAIR      64  41  42 SE6       30.38F
COPPER MTN     FAIR      54  32  43 W13G21    30.64R
BERTHOUD PASS  PTSUNNY   43  37  81 NW23G30   30.64S
COTTONWOOD PAS FAIR      61  36  39 SE6       30.50F
GUNNISON       FAIR      63  35  35 NE3       30.41F
KREMMLING      FAIR      68  43  40 CALM      30.37F
LEADVILLE      PTSUNNY   60  28  29 NW12G20   30.49S
MONARCH PASS   FAIR      52  27  37 SW17G25   30.75S
SALIDA         FAIR      66  44  45 CALM      30.43F
SUNLIGHT       FAIR      54  32  43 SW3       30.60S
WILKERSON PASS FAIR      54  32  43 SW9       30.62S
$$

COZ069>075-171800-
...SAN LUIS VALLEY/SANGRE DE CRISTO MOUNTAINS...

CITY           SKY/WX    TMP DP  RH WIND       PRES   REMARKS
ALAMOSA        FAIR      67  43  41 SE6       30.38S
DEL NORTE      FAIR      67  38  35 SE5       30.40S
LA VETA PASS   NOT AVBL
SAGUACHE       FAIR      68  37  32 SE5       30.40S
$$

COZ035-036-038>040-171800-
...NORTHERN COLORADO FRONT RANGE...

CITY           SKY/WX    TMP DP  RH WIND       PRES   REMARKS
DENVER INTL AP FAIR      81  40  23 SW9       30.16F
DMNS CITY PARK   N/A     83  40  22 E8        30.15F
AURORA         MOSUNNY   78  41  26 SW8       30.19S
FRONT RANGE AP FAIR      81  37  21 S6        30.18S
ERIE MUNI ARPT FAIR      80  39  23 CALM      30.20S
BOULDER MUN AP FAIR      77  45  31 SE3       30.15F
CENTENNIAL     FAIR      77  37  23 W6        30.20F
BROOMFIELD     MOSUNNY   79  41  25 VRB3      30.19F
FORT COLLINS   PTSUNNY   74  53  48 S5        30.15F
LONGMONT       FAIR      80  46  30 E3        30.15F
$$

COZ041-046-047-076>085-087-088-171800-
...PIKES PEAK/PALMER DIVIDE AND SOUTHERN FOOTHILLS...

CITY           SKY/WX    TMP DP  RH WIND       PRES   REMARKS
COLO. SPRINGS  FAIR      73  52  47 SE7       30.25F
A. F. ACADEMY  FAIR      73  47  38 SE3       30.25F
SCHRIEVER AFB  FAIR      71  49  46 S5        30.25F
CHEYENNE MTN   FAIR      69  51  52 E3        30.24S
ELLICOTT       FAIR     N/A N/A N/A SW5       30.24S
FALCON         FAIR      73  43  34 SW6       30.30S
FORT CARSON    FAIR      72  52  48 E3        30.22F
LIMON          FAIR      74  54  49 S13G20    30.19F
MONUMENT HILL  FAIR      72  39  30 W10       30.31S
CANON CITY     SUNNY     81  52  36 W17       30.18F
WALSENBURG     FAIR      79  46  31 CALM      30.24F
TRINIDAD       FAIR      76  51  41 VRB3      30.23F
$$

COZ042>045-048>051-090-091-171800-
...NORTHEAST COLORADO...

CITY           SKY/WX    TMP DP  RH WIND       PRES   REMARKS
GREELEY ARPT   FAIR      75  54  47 CALM      30.14
AKRON          FAIR      77  50  38 W10       30.12F
BURLINGTON     FAIR      79  58  48 S15G24    30.15F
WRAY           NOT AVBL
YUMA           FAIR      77  46  33 S16G25    30.11S
STERLING       FAIR      77  54  44 SW8       30.08F
HOLYOKE        FAIR      79  59  50 S9        30.09F
FORT MORGAN    FAIR      78  47  33 W6        30.12F
$$

COZ086-089-092>099-171800-
...SOUTHEAST COLORADO...

CITY           SKY/WX    TMP DP  RH WIND       PRES   REMARKS
PUEBLO         FAIR      79  51  37 VRB5      30.15F
LA JUNTA       FAIR      81  55  40 SW12      30.14F
LAMAR          FAIR      82  58  43 S16G24    30.11F
SPRINGFIELD      N/A     76  60  57 S15G21    30.18F
$$



USA.gov is the U.S. government's official web portal to all federal, state and local government web resources and services.